ITY6KC LIRF-LIMC

Flight info

Callsign ITY6KC
Flight time 1h 0m
Altitude 40000
Route NEMBO DCT UPDIN DCT SPEZI DCT IDONA DCT MEBUR
Aircraft A359/H-SDE2E3GHIJ3J4J5LM1ORWXY/LB1D1

Departure

Time 2026-05-04 01:33
Airport Rome–Fiumicino Leonardo da Vinci International Airport (LIRF)

Arrival

Time 2026-05-04 02:33
Airport Milan Malpensa International Airport (LIMC)
Time Latitude Longitude Altitude Speed Heading
2026-05-04 01:03 41.79856 12.24649 21 ft 0 kts 160°
2026-05-04 01:20 41.79871 12.24642 24 ft 4 kts 160°
2026-05-04 01:20 41.79896 12.24630 26 ft 4 kts 160°
2026-05-04 01:20 41.79917 12.24619 25 ft 4 kts 151°
2026-05-04 01:21 41.79935 12.24597 25 ft 4 kts 106°
2026-05-04 01:21 41.79935 12.24564 25 ft 4 kts 71°
2026-05-04 01:21 41.79936 12.24565 25 ft 3 kts 70°
2026-05-04 01:21 41.79937 12.24568 25 ft 0 kts 70°
2026-05-04 01:26 41.79937 12.24569 21 ft 0 kts 70°
2026-05-04 01:26 41.79944 12.24595 24 ft 6 kts 69°
2026-05-04 01:26 41.79966 12.24674 26 ft 12 kts 69°
2026-05-04 01:26 41.80011 12.24774 25 ft 10 kts 32°
2026-05-04 01:27 41.80084 12.24775 24 ft 12 kts 353°
2026-05-04 01:27 41.80169 12.24795 22 ft 9 kts 36°
2026-05-04 01:27 41.80197 12.24860 24 ft 9 kts 73°
2026-05-04 01:27 41.80208 12.24951 24 ft 10 kts 90°
2026-05-04 01:28 41.80210 12.25060 23 ft 13 kts 84°
2026-05-04 01:28 41.80237 12.25187 22 ft 16 kts 68°
2026-05-04 01:28 41.80280 12.25334 24 ft 18 kts 69°
2026-05-04 01:28 41.80325 12.25502 24 ft 20 kts 70°
2026-05-04 01:29 41.80376 12.25690 25 ft 23 kts 70°
2026-05-04 01:29 41.80433 12.25895 26 ft 24 kts 70°
2026-05-04 01:29 41.80489 12.26097 26 ft 23 kts 70°
2026-05-04 01:29 41.80545 12.26300 25 ft 23 kts 69°
2026-05-04 01:30 41.80597 12.26488 22 ft 19 kts 70°
2026-05-04 01:30 41.80639 12.26640 24 ft 16 kts 70°
2026-05-04 01:30 41.80679 12.26781 24 ft 15 kts 69°
2026-05-04 01:30 41.80712 12.26897 21 ft 11 kts 69°
2026-05-04 01:31 41.80737 12.26990 23 ft 12 kts 70°
2026-05-04 01:31 41.80764 12.27085 25 ft 8 kts 63°
2026-05-04 01:31 41.80816 12.27126 25 ft 10 kts
2026-05-04 01:31 41.80892 12.27103 25 ft 13 kts 341°
2026-05-04 01:32 41.80972 12.27039 26 ft 14 kts 294°
2026-05-04 01:32 41.80953 12.26904 20 ft 17 kts 251°
2026-05-04 01:32 41.80884 12.26651 22 ft 60 kts 249°
2026-05-04 01:32 41.80650 12.25810 27 ft 131 kts 250°
2026-05-04 01:33 41.80277 12.24441 226 ft 172 kts 251°
2026-05-04 01:33 41.79901 12.22923 1021 ft 169 kts 252°
2026-05-04 01:33 41.79521 12.21470 2006 ft 161 kts 251°
2026-05-04 01:33 41.79303 12.19915 2583 ft 183 kts 263°
2026-05-04 01:34 41.79224 12.18079 3006 ft 211 kts 266°
2026-05-04 01:34 41.79175 12.15962 3307 ft 242 kts 267°
2026-05-04 01:34 41.79123 12.13631 3946 ft 256 kts 267°
2026-05-04 01:34 41.79066 12.11222 4797 ft 261 kts 266°
2026-05-04 01:35 41.79008 12.08762 5678 ft 266 kts 266°
2026-05-04 01:35 41.79001 12.06260 6603 ft 271 kts 268°
2026-05-04 01:35 41.79009 12.03721 7528 ft 274 kts 268°
2026-05-04 01:35 41.79013 12.01185 8483 ft 277 kts 268°
2026-05-04 01:36 41.79012 11.98551 9468 ft 281 kts 268°
2026-05-04 01:36 41.79009 11.95945 10389 ft 286 kts 269°
2026-05-04 01:36 41.79002 11.93198 10924 ft 306 kts 269°
2026-05-04 01:36 41.78993 11.90233 11275 ft 330 kts 269°
2026-05-04 01:37 41.78982 11.87065 11730 ft 347 kts 269°
2026-05-04 01:37 41.78972 11.83787 12501 ft 354 kts 269°
2026-05-04 01:37 41.78965 11.80462 13331 ft 359 kts 269°
2026-05-04 01:37 41.78951 11.77091 14155 ft 364 kts 269°
2026-05-04 01:38 41.78935 11.73677 14914 ft 368 kts 269°
2026-05-04 01:38 41.78918 11.70225 15683 ft 372 kts 269°
2026-05-04 01:38 41.78901 11.66743 16501 ft 375 kts 269°
2026-05-04 01:38 41.78882 11.63253 17155 ft 382 kts 269°
2026-05-04 01:39 41.78877 11.59669 17859 ft 388 kts 271°
2026-05-04 01:39 41.79272 11.56076 18571 ft 393 kts 287°
2026-05-04 01:39 41.80481 11.52806 19288 ft 395 kts 306°
2026-05-04 01:39 41.82223 11.49944 20030 ft 398 kts 310°
2026-05-04 01:40 41.84064 11.47168 20852 ft 399 kts 311°
2026-05-04 01:40 41.85918 11.44377 21590 ft 402 kts 311°
2026-05-04 01:40 41.87785 11.41548 22243 ft 408 kts 311°
2026-05-04 01:40 41.89678 11.38667 22842 ft 414 kts 311°
2026-05-04 01:41 41.91585 11.35753 23569 ft 417 kts 311°
2026-05-04 01:41 41.93506 11.32812 24183 ft 421 kts 310°
2026-05-04 01:41 41.95442 11.29843 24756 ft 425 kts 310°
2026-05-04 01:41 41.97402 11.26834 25294 ft 429 kts 310°
2026-05-04 01:42 41.99372 11.23805 25898 ft 432 kts 310°
2026-05-04 01:42 42.01355 11.20754 26472 ft 435 kts 309°
2026-05-04 01:42 42.03354 11.17673 27037 ft 439 kts 309°
2026-05-04 01:42 42.05368 11.14567 27601 ft 442 kts 309°
2026-05-04 01:43 42.07398 11.11432 28160 ft 446 kts 309°
2026-05-04 01:43 42.09443 11.08270 28725 ft 449 kts 309°
2026-05-04 01:43 42.11503 11.05083 29271 ft 452 kts 309°
2026-05-04 01:43 42.13548 11.01915 29806 ft 455 kts 309°
2026-05-04 01:44 42.15633 10.98683 30298 ft 458 kts 309°
2026-05-04 01:44 42.17731 10.95424 30719 ft 461 kts 309°
2026-05-04 01:44 42.19839 10.92148 31160 ft 464 kts 309°
2026-05-04 01:44 42.21959 10.88850 31573 ft 467 kts 308°
2026-05-04 01:45 42.24089 10.85533 31980 ft 469 kts 308°
2026-05-04 01:45 42.26228 10.82200 32358 ft 471 kts 308°
2026-05-04 01:45 42.31119 10.76194 33081 ft 481 kts 323°
2026-05-04 01:46 42.33937 10.73729 33406 ft 485 kts 326°
2026-05-04 01:46 42.36842 10.71390 33769 ft 487 kts 327°
2026-05-04 01:46 42.39784 10.69112 34249 ft 486 kts 327°
2026-05-04 01:46 42.42715 10.66863 34697 ft 484 kts 327°
2026-05-04 01:47 42.45631 10.64614 35153 ft 481 kts 327°
2026-05-04 01:47 42.48521 10.62364 35594 ft 478 kts 327°
2026-05-04 01:47 42.51393 10.60107 36018 ft 476 kts 326°
2026-05-04 01:47 42.54252 10.57845 36413 ft 475 kts 326°
2026-05-04 01:48 42.57097 10.55585 36758 ft 475 kts 326°
2026-05-04 01:48 42.59950 10.53311 37029 ft 475 kts 326°
2026-05-04 01:48 42.62795 10.51040 37385 ft 474 kts 326°
2026-05-04 01:48 42.65635 10.48774 37772 ft 472 kts 325°
2026-05-04 01:49 42.68464 10.46515 38153 ft 470 kts 325°
2026-05-04 01:49 42.71276 10.44268 38525 ft 469 kts 325°
2026-05-04 01:49 42.74081 10.42023 38854 ft 467 kts 325°
2026-05-04 01:49 42.76878 10.39783 39125 ft 466 kts 326°
2026-05-04 01:50 42.79667 10.37547 39335 ft 466 kts 326°
2026-05-04 01:50 42.82425 10.35333 39541 ft 466 kts 326°
2026-05-04 01:50 42.85216 10.33090 39727 ft 466 kts 326°
2026-05-04 01:50 42.88011 10.30841 39922 ft 466 kts 326°
2026-05-04 01:51 42.90802 10.28594 40099 ft 467 kts 326°
2026-05-04 01:51 42.93602 10.26336 40131 ft 468 kts 326°
2026-05-04 01:51 42.99203 10.21815 40133 ft 467 kts 326°
2026-05-04 01:52 43.04796 10.17291 40133 ft 468 kts 326°
2026-05-04 01:52 43.10400 10.12747 40129 ft 469 kts 325°
2026-05-04 01:53 43.16013 10.08187 40132 ft 469 kts 325°
2026-05-04 01:53 43.21585 10.03650 40133 ft 469 kts 326°
2026-05-04 01:54 43.27184 9.99082 40129 ft 469 kts 326°
2026-05-04 01:54 43.32789 9.94498 40127 ft 469 kts 326°
2026-05-04 01:55 43.38391 9.89908 40124 ft 468 kts 326°
2026-05-04 01:55 43.44056 9.85454 40128 ft 469 kts 328°
2026-05-04 01:56 43.48810 9.81830 40127 ft 470 kts 327°
2026-05-04 01:56 43.51671 9.79644 39988 ft 470 kts 327°
2026-05-04 01:56 43.54530 9.77448 39748 ft 471 kts 327°
2026-05-04 01:57 43.57388 9.75241 39524 ft 471 kts 327°
2026-05-04 01:57 43.60246 9.73026 39290 ft 471 kts 327°
2026-05-04 01:57 43.63107 9.70802 39066 ft 472 kts 327°
2026-05-04 01:57 43.65967 9.68575 38836 ft 472 kts 327°
2026-05-04 01:58 43.68830 9.66344 38561 ft 473 kts 327°
2026-05-04 01:58 43.71698 9.64105 38269 ft 474 kts 327°
2026-05-04 01:58 43.74562 9.61870 37783 ft 470 kts 327°
2026-05-04 01:58 43.77403 9.59651 37122 ft 468 kts 327°
2026-05-04 01:59 43.80234 9.57442 36448 ft 467 kts 327°
2026-05-04 01:59 43.83066 9.55228 35743 ft 467 kts 326°
2026-05-04 01:59 43.85861 9.53036 35004 ft 469 kts 326°
2026-05-04 01:59 43.88705 9.50801 34196 ft 471 kts 326°
2026-05-04 02:00 43.91566 9.48551 33301 ft 474 kts 326°
2026-05-04 02:00 43.95410 9.45524 32140 ft 476 kts 326°
2026-05-04 02:00 43.97361 9.44101 31544 ft 480 kts 332°
2026-05-04 02:00 44.00535 9.42537 30628 ft 488 kts 341°
2026-05-04 02:01 44.03836 9.41361 29867 ft 488 kts 343°
2026-05-04 02:01 44.07123 9.40255 29197 ft 484 kts 343°
2026-05-04 02:01 44.10380 9.39170 28547 ft 479 kts 343°
2026-05-04 02:01 44.13606 9.38097 27907 ft 475 kts 344°
2026-05-04 02:02 44.16816 9.37030 27264 ft 471 kts 344°
2026-05-04 02:02 44.19994 9.35973 26626 ft 468 kts 344°
2026-05-04 02:02 44.23143 9.34925 26000 ft 464 kts 344°
2026-05-04 02:02 44.26275 9.33881 25366 ft 461 kts 344°
2026-05-04 02:03 44.29388 9.32843 24752 ft 458 kts 344°
2026-05-04 02:03 44.32479 9.31811 24129 ft 455 kts 345°
2026-05-04 02:03 44.35545 9.30786 23467 ft 452 kts 345°
2026-05-04 02:03 44.38593 9.29766 22790 ft 448 kts 345°
2026-05-04 02:04 44.41610 9.28757 22169 ft 443 kts 345°
2026-05-04 02:04 44.44590 9.27758 21541 ft 438 kts 345°
2026-05-04 02:04 44.47543 9.26768 20908 ft 434 kts 345°
2026-05-04 02:04 44.50464 9.25787 20285 ft 430 kts 345°
2026-05-04 02:05 44.53324 9.24825 19668 ft 426 kts 345°
2026-05-04 02:05 44.56195 9.23858 19040 ft 423 kts 345°
2026-05-04 02:05 44.59051 9.22896 18399 ft 420 kts 345°
2026-05-04 02:05 44.61886 9.21939 17692 ft 417 kts 345°
2026-05-04 02:06 44.64689 9.20993 17070 ft 412 kts 345°
2026-05-04 02:06 44.67470 9.20053 16438 ft 409 kts 345°
2026-05-04 02:06 44.70220 9.19124 15808 ft 405 kts 345°
2026-05-04 02:06 44.72953 9.18198 15180 ft 403 kts 345°
2026-05-04 02:07 44.75627 9.17088 14535 ft 399 kts 336°
2026-05-04 02:07 44.78029 9.15206 13944 ft 393 kts 324°
2026-05-04 02:07 44.80273 9.13031 13295 ft 390 kts 322°
2026-05-04 02:07 44.82479 9.10843 12667 ft 385 kts 322°
2026-05-04 02:08 44.84658 9.08684 12073 ft 381 kts 322°
2026-05-04 02:08 44.86821 9.06547 11479 ft 376 kts 322°
2026-05-04 02:08 44.88929 9.04468 11245 ft 362 kts 322°
2026-05-04 02:08 44.90944 9.02483 11141 ft 345 kts 322°
2026-05-04 02:09 44.92866 9.00591 11020 ft 329 kts 322°
2026-05-04 02:09 44.94675 8.98812 10905 ft 314 kts 321°
2026-05-04 02:09 44.96497 8.97210 10763 ft 304 kts 332°
2026-05-04 02:09 44.98462 8.96235 10634 ft 295 kts 341°
2026-05-04 02:10 45.00418 8.95483 10407 ft 289 kts 342°
2026-05-04 02:10 45.02356 8.94756 10059 ft 288 kts 342°
2026-05-04 02:10 45.04317 8.94016 9743 ft 299 kts 342°
2026-05-04 02:10 45.06350 8.93241 9563 ft 305 kts 342°
2026-05-04 02:11 45.08390 8.92465 9220 ft 303 kts 342°
2026-05-04 02:11 45.10427 8.91688 8744 ft 303 kts 342°
2026-05-04 02:11 45.12447 8.90917 8365 ft 299 kts 342°
2026-05-04 02:11 45.14443 8.90155 8050 ft 295 kts 343°
2026-05-04 02:12 45.16422 8.89398 7725 ft 293 kts 343°
2026-05-04 02:12 45.18389 8.88644 7340 ft 292 kts 343°
2026-05-04 02:12 45.20337 8.87897 6994 ft 289 kts 343°
2026-05-04 02:12 45.22258 8.87159 6690 ft 286 kts 343°
2026-05-04 02:13 45.23704 8.86604 6448 ft 284 kts 343°
2026-05-04 02:13 45.25590 8.85879 6160 ft 285 kts 344°
2026-05-04 02:13 45.27504 8.85142 5855 ft 285 kts 345°
2026-05-04 02:13 45.29413 8.84407 5545 ft 284 kts 345°
2026-05-04 02:14 45.31303 8.83679 5332 ft 276 kts 345°
2026-05-04 02:14 45.33106 8.82984 5250 ft 262 kts 345°
2026-05-04 02:14 45.34824 8.82321 5145 ft 250 kts 345°
2026-05-04 02:14 45.36467 8.81687 5041 ft 238 kts 345°
2026-05-04 02:15 45.38021 8.81086 4931 ft 225 kts 346°
2026-05-04 02:15 45.39453 8.80532 4869 ft 201 kts 346°
2026-05-04 02:15 45.40755 8.80028 4761 ft 190 kts 346°
2026-05-04 02:15 45.41994 8.79457 4604 ft 181 kts 335°
2026-05-04 02:16 45.43022 8.78513 4337 ft 171 kts 329°
2026-05-04 02:16 45.44061 8.77779 4173 ft 163 kts 338°
2026-05-04 02:16 45.45123 8.77304 3978 ft 157 kts 347°
2026-05-04 02:16 45.46167 8.76985 3770 ft 150 kts 349°
2026-05-04 02:17 45.47182 8.76672 3570 ft 149 kts 349°
2026-05-04 02:17 45.48198 8.76388 3384 ft 149 kts 349°
2026-05-04 02:17 45.49213 8.76107 3173 ft 149 kts 349°
2026-05-04 02:17 45.50228 8.75825 2963 ft 149 kts 348°
2026-05-04 02:18 45.51230 8.75549 2781 ft 148 kts 348°
2026-05-04 02:18 45.52242 8.75277 2588 ft 148 kts 348°
2026-05-04 02:18 45.53253 8.75015 2407 ft 147 kts 348°
2026-05-04 02:18 45.54261 8.74759 2201 ft 146 kts 348°
2026-05-04 02:19 45.55253 8.74481 1996 ft 145 kts 346°
2026-05-04 02:19 45.56237 8.74175 1752 ft 144 kts 346°
2026-05-04 02:19 45.57210 8.73892 1540 ft 142 kts 348°
2026-05-04 02:19 45.58171 8.73641 1384 ft 139 kts 348°
2026-05-04 02:20 45.59116 8.73378 1204 ft 137 kts 348°
2026-05-04 02:20 45.60039 8.73111 1006 ft 134 kts 349°
2026-05-04 02:20 45.60952 8.72861 830 ft 133 kts 349°
2026-05-04 02:20 45.61860 8.72611 732 ft 131 kts 348°
2026-05-04 02:21 45.62743 8.72372 768 ft 149 kts 347°
2026-05-04 02:21 45.63904 8.72032 1254 ft 175 kts 349°
2026-05-04 02:21 45.65041 8.71650 1981 ft 163 kts 337°
2026-05-04 02:21 45.65922 8.70679 2609 ft 161 kts 306°
2026-05-04 02:22 45.66442 8.69231 2948 ft 172 kts 283°
2026-05-04 02:22 45.66485 8.67488 2988 ft 183 kts 256°
2026-05-04 02:22 45.66066 8.65758 2992 ft 185 kts 244°
2026-05-04 02:22 45.65543 8.64086 3063 ft 184 kts 243°
2026-05-04 02:23 45.65002 8.62407 3403 ft 189 kts 244°
2026-05-04 02:23 45.64432 8.60698 3834 ft 191 kts 242°
2026-05-04 02:23 45.63751 8.59061 3980 ft 193 kts 224°
2026-05-04 02:23 45.62585 8.58213 3986 ft 194 kts 185°
2026-05-04 02:24 45.61222 8.58225 3989 ft 198 kts 174°
2026-05-04 02:24 45.59837 8.58368 3984 ft 205 kts 173°
2026-05-04 02:24 45.58359 8.58541 3980 ft 219 kts 173°
2026-05-04 02:24 45.56828 8.58724 3988 ft 221 kts 173°
2026-05-04 02:25 45.55297 8.58906 3989 ft 221 kts 173°
2026-05-04 02:25 45.53806 8.59082 3990 ft 207 kts 173°
2026-05-04 02:25 45.52416 8.59242 4014 ft 197 kts 173°
2026-05-04 02:25 45.51071 8.59409 3870 ft 189 kts 173°
2026-05-04 02:26 45.49762 8.59585 3386 ft 190 kts 173°
2026-05-04 02:26 45.48446 8.59777 2868 ft 190 kts 173°
2026-05-04 02:26 45.47218 8.60283 2778 ft 180 kts 154°
2026-05-04 02:26 45.46284 8.61360 2781 ft 170 kts 128°
2026-05-04 02:27 45.45839 8.62906 2709 ft 170 kts 103°
2026-05-04 02:27 45.45660 8.64587 2582 ft 172 kts 98°
2026-05-04 02:27 45.45533 8.66265 2506 ft 173 kts 98°
2026-05-04 02:27 45.45409 8.67975 2494 ft 173 kts 98°
2026-05-04 02:28 45.45284 8.69682 2493 ft 173 kts 98°
2026-05-04 02:28 45.45158 8.71388 2493 ft 173 kts 98°
2026-05-04 02:28 45.45031 8.73095 2493 ft 173 kts 98°
2026-05-04 02:28 45.44943 8.74805 2491 ft 175 kts 90°
2026-05-04 02:29 45.45473 8.76333 2491 ft 178 kts 38°
2026-05-04 02:29 45.46632 8.76853 2497 ft 178 kts 359°
2026-05-04 02:29 45.47845 8.76539 2499 ft 178 kts 341°
2026-05-04 02:29 45.49015 8.76118 2502 ft 167 kts 346°
2026-05-04 02:30 45.50148 8.75831 2500 ft 164 kts 347°
2026-05-04 02:30 45.51268 8.75527 2495 ft 164 kts 347°
2026-05-04 02:30 45.52386 8.75219 2499 ft 164 kts 347°
2026-05-04 02:30 45.53495 8.74916 2343 ft 161 kts 347°
2026-05-04 02:31 45.54566 8.74625 2126 ft 152 kts 347°
2026-05-04 02:31 45.55576 8.74346 1920 ft 144 kts 347°
2026-05-04 02:31 45.56545 8.74056 1726 ft 141 kts 345°
2026-05-04 02:31 45.57509 8.73780 1520 ft 141 kts 348°
2026-05-04 02:32 45.58463 8.73533 1308 ft 138 kts 348°
2026-05-04 02:32 45.59400 8.73288 1136 ft 136 kts 347°
2026-05-04 02:32 45.60307 8.73034 958 ft 134 kts 350°
2026-05-04 02:32 45.61227 8.72781 777 ft 133 kts 349°
2026-05-04 02:33 45.62103 8.72548 730 ft 115 kts 348°
2026-05-04 02:33 45.62747 8.72370 740 ft 74 kts 348°
2026-05-04 02:33 45.63108 8.72271 748 ft 33 kts 349°
2026-05-04 02:33 45.63276 8.72220 751 ft 22 kts 341°
2026-05-04 02:34 45.63331 8.72134 750 ft 9 kts 282°
2026-05-04 02:34 45.63327 8.72029 751 ft 12 kts 262°
2026-05-04 02:34 45.63309 8.71894 752 ft 16 kts 258°
2026-05-04 02:34 45.63285 8.71725 752 ft 19 kts 258°
2026-05-04 02:35 45.63258 8.71529 749 ft 21 kts 258°